Regional Weather Roundup
Issued by NWS

Home | Current Version | Previous Version | Graphics & Text | Print | Product List | Glossary On
Versions: 1 2 3 4 5 6 7 8 9 10 11 12 13 14 15 16 17 18 19 20 21 22 23 24 25 26 27 28 29 30 31 32 33 34 35 36 37 38 39 40 41 42 43 44 45 46 47 48 49 50
000
ASUS43 KMPX 010601
RWRMN
WEATHER ROUNDUP FOR MINNESOTA
NATIONAL WEATHER SERVICE TWIN CITIES/CHANHASSEN MN
100 AM CDT SAT OCT 01 2016


NOTE: "FAIR" INDICATES FEW OR NO CLOUDS BELOW 12,000 FEET WITH NO
SIGNIFICANT WEATHER AND/OR OBSTRUCTIONS TO VISIBILITY. N/A MEANS
CURRENT SKY AND/OR WEATHER CONDITIONS ARE NOT AVAILABLE.

MNZ060>063-068>070-010700-
   Twin Cities Metro

CITY           SKY/WX    TMP DP  RH WIND       PRES   REMARKS
TWIN CITIES    MOCLDY    60  52  74 NE6       30.20S
6HR MIN TEMP:  59; 6HR MAX TEMP:  67;

ST PAUL        PTCLDY    58  52  80 CALM      30.21F
CRYSTAL        CLOUDY    56  50  80 NE3       30.20S
BLAINE         PTCLDY    57  55  94 NE5       30.21S
LAKEVILLE      CLOUDY    57  54  88 NE8       30.19S
EDEN PRAIRIE   CLOUDY    59  52  77 N5        30.19S
6HR MIN TEMP:  59; 6HR MAX TEMP:  67;

LAKEVILLE      CLOUDY    57  54  88 NE8       30.19S
SOUTH ST PAUL  PTCLDY    59  53  79 CALM      30.20S
LAKE ELMO      FAIR      55  54  94 NE6       30.22S
$$
MNZ001>005-007-008-013>017-022>024-027-028-010700-
   Northwest Minnesota

CITY           SKY/WX    TMP DP  RH WIND       PRES   REMARKS
BEMIDJI        CLOUDY    49  46  90 E7        30.23F
HALLOCK        CLOUDY    57  52  82 SE9       30.18S
ROSEAU         CLOUDY    55  50  82 SE3       30.23S
WARROAD        PTCLDY    52  48  87 SE3       30.24S
THIEF RVR FALL PTCLDY    53  50  89 E7        30.22S
CROOKSTON      PTCLDY    55  50  82 SE8       30.20S
FOSSTON        PTCLDY    52  48  87 SE8       30.21F
DETROIT LAKES  CLOUDY    52  46  82 SE7       30.22S
MOORHEAD       CLOUDY    54  48  82 SE6       30.19S
PARK RAPIDS    CLEAR     50  45  83 CALM      30.23S
MAHNOMEN       FAIR      52  45  75 S5        30.21R
$$
MNZ006-009>011-018-025>026-010700-
   North Central Minnesota

CITY           SKY/WX    TMP DP  RH WIND       PRES   REMARKS
BAUDETTE       PTCLDY    49  47  93 SE8       30.25F
FLAG ISLAND    MOCLDY    55  52  88 SE9       30.23F
INTL FALLS     CLOUDY    46  45  96 SE3       30.27S
6HR MIN TEMP:  41; 6HR MAX TEMP:  52;

WASKISH        CLOUDY    45  45 100 E3        30.24F FOG
BIG FORK       CLEAR     39  39 100 CALM      30.26F
GRAND RAPIDS   CLOUDY    48  48 100 SE3       30.27F FOG
ORR            CLEAR     43  39  87 CALM      30.26S
COOK           CLEAR     43  43 100 CALM      30.28S
WALKER         FAIR      50  48  92 E3        30.24S
$$
MNZ012-019>021-037-010700-
   Northeast Minnesota

CITY           SKY/WX    TMP DP  RH WIND       PRES   REMARKS
DULUTH         CLOUDY    51  51 100 E9        30.26F
6HR MIN TEMP:  50; 6HR MAX TEMP:  52;

ELY            CLEAR     43  41  93 CALM      30.28S
HIBBING        CLEAR     38  38 100 CALM      30.27S FOG
EVELETH        CLEAR     44  43  97 CALM      30.28S
DULUTH HARBOR  CLOUDY    54  52  94 NE10      30.28S
TWO HARBORS    CLEAR     54  48  82 NE5       30.25S
SILVER BAY     CLEAR     54  48  82 NE5       30.26F
GRAND MARAIS     N/A     58  35  42 NE6       30.28F
G MARAIS ARPRT MOCLDY    45  37  76 N5        30.31F
$$
MNZ029>031-032-039>041-046>048-054>057-064-010700-
   West Central Minnesota

CITY           SKY/WX    TMP DP  RH WIND       PRES   REMARKS
FERGUS FALLS   PTCLDY    54  46  76 E7        30.22S
MORRIS         CLEAR     48  46  93 E8        30.19S
ALEXANDRIA     CLEAR     52  50  93 E6        30.22F
ELBOW LAKE     FAIR      54  49  85 SE9       30.20F
WADENA         CLOUDY    48  46  93 E3        30.22S
GLENWOOD       CLEAR     48  46  93 NE5       30.21F
BENSON         CLEAR     43  41  93 CALM      30.20S
ORTONVILLE     CLEAR     48  45  87 CALM      30.18S
MADISON        CLOUDY    52  46  82 CALM      30.19S
WILLMAR        FAIR      55  52  88 E5        30.20F
$$
MNZ033>034-036-042>043-049>051-058-059-010700-
   Central Minnesota

CITY           SKY/WX    TMP DP  RH WIND       PRES   REMARKS
ST CLOUD       CLOUDY    52  52 100 E8        30.22S
6HR MIN TEMP:  52; 6HR MAX TEMP:  61;

SAUK CENTRE    FAIR      50  49  95 CALM      30.21S
PAYNESVILLE    CLEAR     50  51 100 CALM      30.21S
AITKIN         CLOUDY    54  48  82 NE3       30.24R
PINE RIVER     CLOUDY    50  50 100 E5        30.27S
BRAINERD       CLOUDY    52  50  93 E5        30.24S
STAPLES        CLEAR     46  46 100 CALM      30.23S
LONG PRAIRIE   FAIR      50  46  87 CALM      30.22S
LITTLE FALLS   CLOUDY    50  46  87 CALM      30.22F
LITCHFIELD     CLEAR     54  52  94 E5        30.21S
BUFFALO        PTCLDY    54  50  89 NE6       30.22S
MAPLE LAKE     CLEAR     53  52  96 CALM      30.22S
HUTCHINSON     CLOUDY    55  52  89 E6        30.21S
$$
MNZ037-044-045-052-053-010700-
   East Central Minnesota

CITY           SKY/WX    TMP DP  RH WIND       PRES   REMARKS
PRINCETON        N/A     54  52  94 NE5       30.23S
MORA           CLOUDY    52  48  87 CALM      30.26S
CAMBRIDGE      MOCLDY    55  50  82 NE3       30.21F
MOOSE LAKE     MOCLDY    50  48  93 NE3       30.24S
HINCKLEY       CLOUDY    52  52 100 CALM      30.25S
CLOQUET        CLOUDY    52  48  87 E5        30.26S
MCGREGOR       CLOUDY    50  48  93 E6        30.25F
$$
MNZ071>073-080-081-089-090-097-098-010700-
   Southwest Minnesota

CITY           SKY/WX    TMP DP  RH WIND       PRES   REMARKS
MONTEVIDEO     CLEAR     48  45  87 CALM      30.20F
GRANITE FALLS  CLEAR     53  48  85 CALM      30.20S
CANBY          PTCLDY    47  46  93 CALM      30.20S
MARSHALL       CLEAR     46  44  93 W3        30.19S
REDWOOD FALLS  CLEAR     56  48  74 E7        30.18F
OLIVIA         CLEAR     54  48  82 E6        30.18S
PIPESTONE      PTCLDY    55  48  76 E5        30.19S
WINDOM         CLEAR     52  48  87 CALM      30.18F
WORTHINGTON    CLEAR     50  47  89 CALM      30.19F
JACKSON        CLOUDY    59  50  72 E5        30.19S
TRACY          CLEAR     56  51  84 S5        30.19S
$$
MNZ065>067-074>077-082>085-091>093-010700-
   South Central Minnesota

CITY           SKY/WX    TMP DP  RH WIND       PRES   REMARKS
MANKATO        CLOUDY    61  53  75 NE7       30.18F
NEW ULM        MOCLDY    57  50  77 E6        30.19S
ST JAMES       CLOUDY    59  52  77 CALM      30.19S
FAIRMONT       CLOUDY    60  55  83 CALM      30.18F
GLENCOE        CLEAR     55  53  94 CALM      30.19F
FARIBAULT      CLOUDY    61  54  77 N3        30.18F
OWATONNA       CLOUDY    61  52  72 E3        30.18F
WASECA         CLOUDY    59  52  77 NE5       30.19S
ALBERT LEA     CLOUDY    61  55  82 SE5       30.18F
$$
MNZ078>079-086>088-094>096-010700-
   Southeast Minnesota

CITY           SKY/WX    TMP DP  RH WIND       PRES   REMARKS
ROCHESTER      CLOUDY    61  55  81 CALM      30.18F
6HR MIN TEMP:  60; 6HR MAX TEMP:  65;

RED WING       CLOUDY    61  54  77 CALM      30.17F
DODGE CENTER   CLOUDY    61  54  77 CALM      30.18F
WINONA         CLOUDY    61  57  88 CALM      30.16F
AUSTIN         CLOUDY    61  54  77 CALM      30.17F
PRESTON        CLOUDY    58  53  84 N3        30.16F
$$
ABBREVIATIONS USED IN REMARKS
   TC - TEMPERATURES IN CELSIUS
  WCI - WIND CHILL INDEX
   HX - HEAT INDEX
  VSB - VISIBILITY
$$



USA.gov is the U.S. government's official web portal to all federal, state and local government web resources and services.